Home   Weather   Dublin   Past weeks

Flag for Ireland Past Weather in Dublin, Ireland — Yesterday and Last 2 Weeks

Now
55 °F

Broken clouds.


Feels Like: 52 °F
Forecast: 51 / 56 °F
Wind: 15 mph from Southwest

Location: Dublin Airport

Current Time: Dec 9, 2016 at 11:55:04 am

Latest Report: Dec 9, 2016 at 11:00 am


Visibility: N/A

Pressure: 29.98 "Hg

Humidity: 82%

Dew Point: 50 °F

Location of DublinLocation

Past Weather in Dublin — Graph

°F

Dublin Temperature Yesterday

Maximum temperature yesterday: 55 °F (at 1:30 pm)
Minimum temperature yesterday: 45 °F (at 5:00 pm)
Average temperature yesterday: 50 °F

High & Low Weather Summary for the Past Weeks

 TemperatureHumidityPressure
High59 °F (Dec 7, 11:00 am)100% (Nov 26, 3:30 am)30.57 "Hg (Nov 26, 3:30 am)
Low28 °F (Nov 29, 6:30 am)57% (Nov 28, 10:00 am)29.95 "Hg (Dec 7, 6:00 am)
Average44 °F85%30.28 "Hg
* Reported Nov 24 10:00 am — Dec 9 10:30 am, Dublin, Weather by CustomWeather, © 2016

Note: Actual official high and low records may vary slightly from our data, if they occured in-between our weather recording intervals... More about our weather records

Advertising

Dublin Weather History for the Previous 24 Hours

Scroll right to see more
 ConditionsComfort  
Time TempWeatherWind HumidityBarometerVisibility
10:30 am
Fri, Dec 9
55 °FBroken clouds.15 mph82%29.98 "HgN/A
10:00 am55 °FBroken clouds.13 mph82%29.98 "HgN/A
9:30 am55 °FBroken clouds.15 mph82%29.98 "HgN/A
9:00 am55 °FPartly sunny.16 mph82%29.98 "HgN/A
8:30 am55 °FPartly sunny.15 mph82%29.98 "HgN/A
8:00 am55 °FPassing clouds.14 mph88%29.98 "HgN/A
7:30 am55 °FPartly cloudy.13 mph88%29.98 "HgN/A
7:00 am55 °FPartly cloudy.17 mph88%29.98 "HgN/A
6:30 am57 °FPassing clouds.18 mph82%29.98 "HgN/A
6:00 am57 °FPartly cloudy.16 mph82%29.98 "HgN/A
5:30 am57 °FDrizzle. Mostly cloudy.14 mph82%29.98 "HgN/A
4:30 am57 °FPassing clouds.17 mph88%29.98 "HgN/A
4:00 am57 °FOvercast.15 mph82%29.98 "HgN/A
3:30 am57 °FOvercast.16 mph82%29.98 "HgN/A
3:00 am57 °FMostly cloudy.15 mph82%30.01 "HgN/A
2:30 am57 °FMostly cloudy.15 mph82%30.01 "HgN/A
2:00 am52 °FPartly cloudy.10 mph94%30.01 "HgN/A
1:30 am54 °FPartly cloudy.14 mph94%30.04 "HgN/A
1:00 am52 °FPartly cloudy.14 mph100%30.04 "HgN/A
12:30 am54 °FPartly cloudy.17 mph94%30.04 "HgN/A
12:00 am55 °FPartly cloudy.14 mph82%30.07 "HgN/A
11:30 pm
Thu, Dec 8
54 °FPartly cloudy.13 mph82%30.07 "HgN/A
11:00 pm52 °FPassing clouds.9 mph88%30.07 "HgN/A
10:30 pm50 °FPassing clouds.13 mph94%30.09 "HgN/A
10:00 pm50 °FPassing clouds.13 mph94%30.09 "HgN/A
9:30 pm50 °FPassing clouds.13 mph100%30.09 "Hg4 mi
9:00 pm50 °FFog.8 mph94%30.12 "Hg1 mi
8:30 pm48 °FPassing clouds.10 mph94%30.12 "HgN/A
8:00 pm46 °FPassing clouds.6 mph100%30.15 "HgN/A
7:30 pm45 °FPartly cloudy.6 mph93%30.15 "HgN/A
7:00 pm45 °FPartly cloudy.6 mph100%30.15 "HgN/A
6:30 pm45 °FPassing clouds.7 mph93%30.15 "HgN/A
6:00 pm48 °FPartly cloudy.6 mph94%30.15 "HgN/A
5:30 pm45 °FPartly cloudy.6 mph100%30.15 "HgN/A
5:00 pm45 °FPassing clouds.6 mph93%30.15 "HgN/A
4:30 pm48 °FPassing clouds.5 mph82%30.15 "HgN/A
4:00 pm50 °FPartly sunny.6 mph88%30.15 "HgN/A
3:30 pm54 °FPartly sunny.3 mph77%30.15 "HgN/A
3:00 pm54 °FPartly sunny.5 mph82%30.15 "HgN/A
2:30 pm55 °FPartly sunny.7 mph77%30.15 "HgN/A
2:00 pm55 °FPartly sunny.3 mph77%30.12 "HgN/A
1:30 pm55 °FPartly sunny.8 mph77%30.15 "HgN/A
1:00 pm54 °FPartly sunny.8 mph82%30.15 "HgN/A
12:30 pm54 °FPartly sunny.8 mph82%30.15 "HgN/A
12:00 pm52 °FScattered clouds.9 mph88%30.15 "HgN/A
11:30 am52 °FScattered clouds.13 mph88%30.12 "HgN/A
11:00 am52 °FScattered clouds.14 mph88%30.12 "HgN/A
Weather by CustomWeather, © 2016

See weather overviewHow to use our weather pages